[[{"header":{"parameterUnit":"m.s-1","parameterCategory":1,"la1":30.2992,"la2":30.254,"lo1":-89.0895,"lo2":-89.0443,"dy":0.0025,"dx":0.0025,"nx":19,"ny":19,"refTime":"2026-04-26T09:00:00:Z","depth":0,"parameterNumber":2,"parameterNumberName":"U-component_of_WINDS"},"data":[0,0,0,-2.9411,-2.9399,-2.8716,-2.8713,-2.7934,-2.7928,0,0,0,0,0,0,0,0,0,0,0,-2.9684,-2.9681,-2.9412,-2.9397,-2.8716,-2.8712,-2.7935,-2.7928,0,0,0,0,0,0,0,0,0,0,0,-2.9685,-2.9682,-2.9678,-2.9395,-2.8717,-2.8712,-2.7936,-2.8414,0,0,0,0,0,0,0,0,0,0,-2.9059,-2.9383,-2.9682,-2.9678,-2.9392,-2.8718,-2.8712,-2.8435,-2.8384,-2.8287,0,-2.8232,0,-2.8069,-2.7883,-2.788,0,0,0,-2.9341,-2.9427,-2.918,-2.9678,-2.9386,-2.8719,-2.9007,-2.8406,-2.8348,-2.822,-2.8219,-2.8187,-2.8056,-2.7879,-2.7875,-2.7531,-2.7532,0,0,-2.9379,-2.9596,-2.9221,-2.9147,-2.9273,-2.903,-2.8987,-2.8369,-2.8378,-2.8216,-2.8167,-2.8043,-2.7874,-2.7869,-2.753,-2.7531,0,0,0,-2.9525,-2.9625,-2.939,-2.9182,-2.9053,-2.9012,-2.8962,-2.8405,-2.8311,-2.8158,-2.8034,-2.787,-2.7862,-2.7528,-2.753,-2.7798,0,0,0,-2.9545,-2.971,-2.941,-2.9536,-2.9067,-2.8723,-2.9015,-2.8354,-2.8277,-2.8038,-2.787,-2.7855,-2.7527,-2.7529,-2.7787,-2.7886,0,0,0,-2.9703,-2.9727,-2.9654,-2.955,-2.9266,-2.8728,-2.8597,-2.8332,-2.8205,-2.788,-2.7854,-2.7526,-2.7529,-2.7778,-2.787,-2.7859,0,0,0,-2.9933,-2.9897,-2.9663,-2.9572,-2.9273,-2.8904,-2.8599,-2.8308,-2.8063,-2.7867,-2.7527,-2.753,-2.7775,-2.786,-2.7851,-2.789,-2.7927,0,0,-3.0008,-2.9914,-2.9843,-2.9613,-2.9344,-2.899,-2.875,-2.8312,-2.8075,-2.7722,-2.7711,-2.7791,-2.7869,-2.7857,-2.8061,-2.8094,0,0,0,-2.994,-2.9892,-2.9772,-2.9555,-2.9227,-2.8949,-2.8527,-2.8362,-2.8054,-2.7944,-2.7776,-2.7816,-2.7799,-2.7807,-2.7834,-2.7804,-2.7544,-2.7544,-2.7543,-3.0358,-3.0065,-2.9926,-2.9551,-2.9341,-2.8906,-2.8704,-2.8406,-2.8166,-2.8131,-2.8025,-2.8187,-2.8205,-2.8223,-2.8196,-2.8021,-2.8022,-2.8023,-2.8023,-3.044,-3.0325,-3.001,-2.9764,-2.9449,-2.9232,-2.8807,-2.8644,-2.8389,-2.8243,-2.8213,-2.808,-2.8268,-2.8227,-2.804,-2.8037,-2.8035,-2.8034,-2.8032,-3.0681,-3.0575,-3.0383,-3.0034,-2.9795,-2.9408,-2.9181,-2.8898,-2.8629,-2.8601,-2.8454,-2.8449,-2.8406,-2.8551,-2.8552,-2.8552,-2.8553,-2.8553,-2.8553,-3.1009,-3.0783,-3.0632,-3.0281,-3.0101,-2.9827,-2.9385,-2.9194,-2.891,-2.8721,-2.8718,-2.848,-2.8343,-2.8315,-2.8561,-2.8559,-2.8559,-2.8558,-2.8557,-3.1202,-3.1113,-3.0883,-3.0704,-3.0261,-3.004,-2.9683,-2.9319,-2.9119,-2.9014,-2.8778,-2.8725,-2.8604,-2.858,-2.8555,-2.8847,-2.8847,-2.8847,-2.8847,-3.1407,-3.132,-3.1018,-3.0749,-3.0451,-3.0105,-2.9838,-2.949,-2.9113,-2.8969,-2.8884,-2.8825,-2.8815,-2.8699,-2.8672,-2.8644,-2.8952,-2.8952,-2.8952,-3.1507,-3.1378,-3.1215,-3.0857,-3.0488,-3.0175,-2.9913,-2.9605,-2.9157,-2.895,-2.8848,-2.8843,-2.8745,-2.8729,-2.8525,-2.849,-2.8432,0,0]},{"header":{"parameterUnit":"m.s-1","parameterCategory":1,"la1":30.2992,"la2":30.254,"lo1":-89.0895,"lo2":-89.0443,"dy":0.0025,"dx":0.0025,"nx":19,"ny":19,"refTime":"2026-04-26T09:00:00:Z","depth":0,"parameterNumber":3,"parameterNumberName":"V-component_of_WINDS"},"data":[0,0,0,8.8729,8.8731,8.8781,8.8781,8.8832,8.8833,0,0,0,0,0,0,0,0,0,0,0,8.8714,8.8714,8.8729,8.8731,8.8781,8.8781,8.8832,8.8833,0,0,0,0,0,0,0,0,0,0,0,8.8713,8.8714,8.8714,8.8731,8.8781,8.8781,8.8832,8.8797,0,0,0,0,0,0,0,0,0,0,8.875,8.8737,8.8714,8.8714,8.8731,8.8781,8.8781,8.8796,8.8799,8.8806,0,8.8817,0,8.8826,8.8836,8.8836,0,0,0,8.873,8.8734,8.8748,8.8714,8.8732,8.8781,8.8758,8.8798,8.8802,8.8811,8.8818,8.882,8.8827,8.8836,8.8836,8.8885,8.8885,0,0,8.8727,8.8721,8.8745,8.8751,8.875,8.8757,8.876,8.8801,8.8806,8.8818,8.8821,8.8828,8.8837,8.8837,8.8884,8.8885,0,0,0,8.872,8.8719,8.8733,8.8749,8.8759,8.8758,8.8762,8.8804,8.8809,8.8822,8.8828,8.8837,8.8837,8.8884,8.8884,8.889,0,0,0,8.8718,8.8715,8.8732,8.8729,8.8758,8.8784,8.8764,8.8807,8.8812,8.8828,8.8837,8.8838,8.8884,8.8884,8.889,8.8894,0,0,0,8.871,8.8714,8.8722,8.8728,8.875,8.8783,8.8791,8.8808,8.8815,8.8836,8.8838,8.8884,8.8884,8.8889,8.8893,8.8902,0,0,0,8.87,8.8728,8.8722,8.8753,8.875,8.8788,8.8791,8.8819,8.8838,8.8837,8.8884,8.8884,8.8889,8.8892,8.8901,8.8908,8.8911,0,0,8.8731,8.8731,8.875,8.8746,8.8784,8.8781,8.8817,8.884,8.8845,8.8869,8.887,8.889,8.8893,8.8902,8.8931,8.8934,0,0,0,8.8757,8.877,8.8782,8.8801,8.8819,8.8831,8.8849,8.8855,8.8876,8.8859,8.8897,8.8898,8.8904,8.8907,8.8909,8.8912,8.8886,8.8886,8.8886,8.8794,8.8799,8.8828,8.8838,8.8855,8.8869,8.888,8.889,8.8893,8.89,8.8908,8.8926,8.8929,8.8931,8.8934,8.8913,8.8913,8.8913,8.8913,8.8837,8.8854,8.8852,8.888,8.8882,8.8903,8.8913,8.8913,8.8928,8.8922,8.8927,8.8919,8.8933,8.8936,8.8913,8.8913,8.8913,8.8913,8.8913,8.886,8.8868,8.8876,8.8898,8.8912,8.8919,8.8933,8.8935,8.8937,8.8942,8.8946,8.8946,8.8944,8.8944,8.8944,8.8944,8.8944,8.8944,8.8944,8.888,8.8888,8.8902,8.8918,8.8926,8.8936,8.8944,8.8951,8.8957,8.8957,8.8957,8.8954,8.8935,8.8929,8.8945,8.8945,8.8945,8.8945,8.8945,8.8919,8.8909,8.893,8.8938,8.8952,8.8962,8.8964,8.8975,8.898,8.8985,8.8979,8.8966,8.8965,8.8964,8.8958,8.8981,8.8981,8.8981,8.8981,8.8936,8.8935,8.8954,8.8965,8.8975,8.8977,8.8992,8.8996,8.8998,8.8999,8.8996,8.899,8.8988,8.8988,8.8986,8.8981,8.9009,8.9009,8.9009,8.8957,8.8957,8.8974,8.8977,8.8986,8.8992,8.9005,8.9013,8.9013,8.901,8.9,8.8998,8.8988,8.8985,8.8984,8.898,8.8971,0,0]}]]